This demonstration page uses our WeatherBlox Daily Observations layout. Learn more.

Left ArrowRight Arrow

39.92423, -83.80882

Hourly Observations for August 26, 2022

Temp ( °F °C ) Dew Point ( °F °C ) Humidity (%) Winds ( mph kmh ) Pressure ( in mb ) Visibility ( mi km ) Precip ( " mm )
12:56 am 00:56 Mostly Clear 67 19.4 67 19.4 100 100 SSW 5 7 30.02 1017 10 16 0.00 0.00
1:56 am 01:56 Mostly Cloudy 67 19.4 67 19.4 100 100 Calm 30.02 1017 10 16 0.00 0.00
2:56 am 02:56 Partly Cloudy 67 19.4 67 19.4 100 100 Calm 30.00 1016 10 16 0.00 0.00
3:56 am 03:56 Cloudy 66 18.9 N/A N/A S 3 6 30.00 1016 10 16 0.01 0.25
4:56 am 04:56 Mostly Cloudy 66 18.9 N/A N/A SW 5 7 29.99 1016 10 16 0.01 0.25
5:32 am 05:32 Mostly Cloudy 64 18 N/A N/A SSW 5 7 29.98 1015 10 16 0.00 0.00
5:56 am 05:56 Cloudy 66 18.9 N/A N/A SW 3 6 29.99 1016 10 16 0.00 0.00
6:19 am 06:19 Mostly Cloudy 66 19 N/A N/A SW 5 7 29.98 1015 9 14 0.00 0.00
6:56 am 06:56 Mostly Clear N/A N/A N/A WSW 6 9 30.06 1018 9 14 0.00 0.00
7:56 am 07:56 Partly Cloudy N/A N/A N/A SW 5 7 30.07 1018 8 13 0.00 0.00
8:52 am 08:52 Mostly Cloudy 72 22 N/A N/A WSW 7 11 29.99 1016 10 16 0.00 0.00
8:56 am 08:56 Mostly Cloudy 71 21.7 N/A N/A WSW 6 9 30.02 1017 10 16 0.00 0.00
9:31 am 09:31 Cloudy 72 22 N/A N/A WNW 6 9 29.99 1016 10 16 0.00 0.00
9:56 am 09:56 Mostly Cloudy 73 22.8 73 22.8 100 100 W 6 9 30.02 1017 10 16 0.00 0.00
10:21 am 10:21 Mostly Sunny 75 24 73 23 94 94 WNW 6 9 29.99 1015 10 16 0.00 0.00
10:56 am 10:56 Mostly Cloudy 76 24.4 73 22.8 91 91 WNW 7 11 30.02 1017 10 16 0.00 0.00
11:20 am 11:20 Cloudy 75 24 72 22 89 89 NW 10 17 30.00 1016 10 16 0.00 0.00
11:56 am 11:56 Cloudy 76 24.4 72 22.2 88 88 WNW 9 15 30.04 1017 10 16 0.00 0.00
12:56 pm 12:56 Partly Cloudy 78 25.6 68 20 71 71 NW 7 11 30.03 1017 10 16 0.00 0.00
1:56 pm 13:56 Mostly Cloudy 81 27.2 67 19.4 62 62 NW 8 13 30.01 1016 10 16 0.00 0.00
2:05 pm 14:05 Mostly Cloudy 81 27 66 19 62 62 NNW 8 13 29.98 1015 10 16 0.00 0.00
2:14 pm 14:14 Mostly Cloudy 79 26 68 20 70 70 NW 9 15 29.98 1015 10 16 0.00 0.00
2:56 pm 14:56 Partly Cloudy 80 26.7 67 19.4 64 64 NW 10 17 30.01 1016 10 16 0.00 0.00
3:56 pm 15:56 Partly Cloudy 82 27.8 66 18.9 58 58 NNW 13 20 30.00 1016 10 16 0.00 0.00
4:56 pm 16:56 Mostly Sunny 81 27.2 65 18.3 58 58 NW 13 20 30.00 1016 10 16 0.00 0.00
5:56 pm 17:56 Sunny 80 26.7 66 18.9 62 62 NNW 13 20 30.00 1016 10 16 0.00 0.00
6:56 pm 18:56 Sunny 77 25 66 18.9 69 69 N 10 17 29.97 1015 10 16 0.00 0.00
7:56 pm 19:56 Sunny 74 23.3 67 19.4 79 79 N 8 13 30.00 1016 10 16 0.00 0.00
8:56 pm 20:56 Clear 70 21.1 70 21.1 100 100 N 6 9 30.04 1017 10 16 0.00 0.00
9:56 pm 21:56 Clear 68 20 68 20 100 100 NNE 7 11 30.06 1018 10 16 0.00 0.00
10:56 pm 22:56 Clear N/A N/A N/A E 3 6 30.13 1020 10 16 0.00 0.00
11:56 pm 23:56 Clear N/A N/A N/A E 3 6 30.14 1021 10 16 0.00 0.00

Powered by AerisWeather